Hourly Data Report for October 08, 2016

All times are specified in Local Standard Time (LST). Add 1 hour to adjust for Daylight Saving Time where and when it is observed.

RANKIN INLET A
NUNAVUT

62°48'38.000" N
92°06'53.000" W
32.30 m
2303405
71083
YRT

Download Data

Hourly Data (October 2016)
Hourly Data Report for October 8, 2016
Temp Definition
°C
Dew Point Temp Definition
°C
Rel Hum Definition
%
Wind Dir Definition
10's deg

Wind Spd Definition
km/h
Visibility Definition
km
Stn Press Definition
kPa
Hmdx Definition


Wind Chill Definition


Weather Definition


TIME
00:00 Legend Double Dagger -0.9 -3.4 83 2 18 24.1 102.12   -6 Cloudy
01:00 Legend Double Dagger -1.3 -3.5 85 2 12 24.1 102.11   -5 LegendNANA
02:00 Legend Double Dagger -1.6 -3.2 89 36 18 24.1 102.12   -7 LegendNANA
03:00 Legend Double Dagger -1.5 -2.6 92 35 18 24.1 102.11   -7 Cloudy
04:00 Legend Double Dagger -1.5 -2.6 92 32 14 24.1 102.08   -6 LegendNANA
05:00 Legend Double Dagger -1.7 -2.4 95 34 19 16.1 102.06   -7 Snow
06:00 Legend Double Dagger -1.8 -2.9 92 35 19 16.1 102.04   -7 Snow
07:00 Legend Double Dagger -1.4 -3.1 88 36 20 24.1 102.04   -7 Snow
08:00 Legend Double Dagger -1.2 -3.6 84 36 17 24.1 102.04   -6 LegendNANA
09:00 Legend Double Dagger -0.8 -3.5 82 36 19 24.1 101.99   -6 Mostly Cloudy
10:00 Legend Double Dagger -0.7 -3.7 80 36 18 24.1 101.96   -6 LegendNANA
11:00 Legend Double Dagger -0.1 -2.6 83 35 14 24.1 101.93   -4 LegendNANA
12:00 Legend Double Dagger 0.4 -3.0 78 35 19 24.1 101.90     Mostly Cloudy
13:00 Legend Double Dagger 0.4 -4.8 68 35 22 24.1 101.89     LegendNANA
14:00 Legend Double Dagger 0.6 -5.0 66 32 16 24.1 101.90     LegendNANA
15:00 Legend Double Dagger 0.3 -3.4 76 31 13 24.1 101.88     Mostly Cloudy
16:00 Legend Double Dagger -0.2 -3.9 76 30 11 24.1 101.88   -4 LegendNANA
17:00 Legend Double Dagger -0.7 -3.2 83 30 13 24.1 101.87   -5 LegendNANA
18:00 Legend Double Dagger -1.1 -3.0 87 31 11 24.1 101.86   -5 Snow
19:00 Legend Double Dagger -1.2 -2.5 91 30 8 16.1 101.82   -4 Snow
20:00 Legend Double Dagger -0.4 -2.0 89 29 15 16.1 101.79   -5 Snow
21:00 Legend Double Dagger -0.7 -2.0 91 30 16 16.1 101.77   -5 Snow
22:00 Legend Double Dagger -1.0 -2.0 93 30 13 16.1 101.75   -5 Snow
23:00 Legend Double Dagger -1.2 -2.3 92 30 14 16.1 101.74   -6 Snow

Notes on Data Quality.

Legend

  • E = Estimated
  • M = Missing
  • NA = Not Available
  • ‡ = Partner data that is not subject to review by the National Climate Archives
Date modified: